| time (UTC) | temp C | wind direction | speed KPH | gust KPH | rain 1hr cm | rain 24hr cm | rain mn cm | humidity % | barometer mb |
| 20260502184525 | 10 | 236 | 9.7 | 22.5 | 0.00 | 0.00 | 0.00 | 44 | 1011.6 |
| 20260502184007 | 10 | 255 | 11.3 | 22.5 | 0.00 | 0.00 | 0.00 | 44 | 1011.5 |
| 20260502183507 | 10 | 296 | 11.3 | 20.9 | 0.00 | 0.00 | 0.00 | 44 | 1011.6 |
| 20260502183022 | 10 | 269 | 9.7 | 20.9 | 0.00 | 0.00 | 0.00 | 45 | 1011.7 |
| 20260502182508 | 10 | 281 | 9.7 | 20.9 | 0.00 | 0.00 | 0.00 | 46 | 1011.6 |
| 20260502182011 | 10 | 206 | 12.9 | 22.5 | 0.00 | 0.00 | 0.00 | 44 | 1011.7 |
| 20260502181529 | 10 | 234 | 9.7 | 22.5 | 0.00 | 0.00 | 0.00 | 43 | 1011.7 |
| 20260502181007 | 10 | 283 | 11.3 | 19.3 | 0.00 | 0.00 | 0.00 | 47 | 1011.6 |
| 20260502180511 | 10 | 216 | 11.3 | 22.5 | 0.00 | 0.00 | 0.00 | 47 | 1011.7 |
| 20260502170503 | 8 | 269 | 14.5 | 24.1 | 0.00 | 0.00 | 0.00 | 50 | 1011.7 |
| 20260502164003 | 8 | 273 | 9.7 | 27.4 | 0.00 | 0.00 | 0.00 | 52 | 1011.9 |
| 20260502163503 | 8 | 281 | 16.1 | 27.4 | 0.00 | 0.00 | 0.00 | 51 | 1011.8 |
| 20260502163010 | 8 | 258 | 14.5 | 27.4 | 0.00 | 0.00 | 0.00 | 51 | 1011.9 |
| 20260502162504 | 8 | 237 | 12.9 | 25.7 | 0.00 | 0.00 | 0.00 | 52 | 1011.8 |
| 20260502162004 | 8 | 281 | 14.5 | 25.7 | 0.00 | 0.00 | 0.00 | 52 | 1011.9 |
| 20260502161509 | 8 | 266 | 12.9 | 25.7 | 0.00 | 0.00 | 0.00 | 52 | 1011.9 |
| 20260502161001 | 7 | 277 | 14.5 | 24.1 | 0.00 | 0.00 | 0.00 | 52 | 1011.8 |
| 20260502160503 | 8 | 246 | 11.3 | 22.5 | 0.00 | 0.00 | 0.00 | 52 | 1011.9 |
| 20260502152004 | 7 | 233 | 14.5 | 24.1 | 0.00 | 0.03 | 0.00 | 55 | 1012.2 |
| 20260502151514 | 7 | 246 | 14.5 | 27.4 | 0.00 | 0.03 | 0.00 | 55 | 1012.1 |
| 20260502151003 | 7 | 235 | 16.1 | 29.0 | 0.00 | 0.03 | 0.00 | 56 | 1012.3 |
| 20260502150506 | 7 | 236 | 16.1 | 33.8 | 0.00 | 0.05 | 0.00 | 56 | 1012.1 |
| 20260502130504 | 6 | 242 | 8.0 | 25.7 | 0.00 | 0.23 | 0.00 | 59 | 1012.0 |
| 20260502123504 | 5 | 246 | 16.1 | 25.7 | 0.00 | 0.25 | 0.00 | 60 | 1012.1 |
| 20260502123010 | 5 | 258 | 12.9 | 24.1 | 0.00 | 0.25 | 0.00 | 61 | 1012.1 |
| 20260502122504 | 5 | 219 | 11.3 | 22.5 | 0.00 | 0.25 | 0.00 | 61 | 1012.1 |
| 20260502122010 | 5 | 246 | 9.7 | 22.5 | 0.00 | 0.25 | 0.00 | 62 | 1012.0 |
| 20260502121514 | 5 | 247 | 12.9 | 22.5 | 0.00 | 0.28 | 0.00 | 61 | 1012.0 |
| 20260502121006 | 5 | 215 | 9.7 | 22.5 | 0.00 | 0.28 | 0.00 | 62 | 1012.1 |
| 20260502120504 | 5 | 237 | 11.3 | 22.5 | 0.00 | 0.28 | 0.00 | 63 | 1012.0 |
| 20260502115503 | 4 | 212 | 12.9 | 19.3 | 0.00 | 0.28 | 0.00 | 65 | 1012.0 |
| 20260502115008 | 4 | 265 | 9.7 | 20.9 | 0.00 | 0.28 | 0.00 | 66 | 1011.9 |
| 20260502114514 | 4 | 233 | 11.3 | 20.9 | 0.00 | 0.28 | 0.00 | 67 | 1011.9 |
| 20260502114008 | 4 | 255 | 9.7 | 19.3 | 0.00 | 0.28 | 0.00 | 68 | 1011.8 |
| 20260502113509 | 3 | 244 | 11.3 | 19.3 | 0.00 | 0.28 | 0.00 | 69 | 1011.8 |
| 20260502113016 | 3 | 242 | 11.3 | 19.3 | 0.00 | 0.28 | 0.00 | 70 | 1011.8 |
| 20260502112503 | 3 | 203 | 9.7 | 22.5 | 0.00 | 0.28 | 0.00 | 71 | 1011.8 |
| 20260502112005 | 3 | 252 | 9.7 | 22.5 | 0.00 | 0.28 | 0.00 | 72 | 1011.9 |
| 20260502111512 | 3 | 254 | 8.0 | 17.7 | 0.00 | 0.28 | 0.00 | 73 | 1011.8 |
| 20260502111003 | 3 | 207 | 9.7 | 17.7 | 0.00 | 0.28 | 0.00 | 74 | 1011.8 |
| 20260502110504 | 3 | 199 | 8.0 | 19.3 | 0.00 | 0.33 | 0.00 | 76 | 1011.8 |
| 20260502110016 | 3 | 228 | 11.3 | 19.3 | 0.00 | 0.33 | 0.00 | 77 | 1011.7 |
| 20260502105504 | 3 | 223 | 9.7 | 20.9 | 0.00 | 0.36 | 0.00 | 78 | 1011.6 |
| 20260502105006 | 3 | 234 | 6.4 | 20.9 | 0.00 | 0.36 | 0.00 | 78 | 1011.7 |
| 20260502104517 | 3 | 197 | 6.4 | 20.9 | 0.00 | 0.36 | 0.00 | 79 | 1011.6 |
| 20260502104007 | 2 | 239 | 9.7 | 20.9 | 0.00 | 0.38 | 0.00 | 78 | 1011.5 |
| 20260502103507 | 2 | 231 | 11.3 | 24.1 | 0.00 | 0.43 | 0.00 | 79 | 1011.5 |
| 20260502103020 | 2 | 214 | 12.9 | 24.1 | 0.00 | 0.46 | 0.00 | 78 | 1011.3 |
| 20260502102506 | 3 | 250 | 12.9 | 24.1 | 0.00 | 0.46 | 0.00 | 78 | 1011.3 |
| 20260502102007 | 3 | 253 | 11.3 | 22.5 | 0.00 | 0.46 | 0.00 | 78 | 1011.2 |
| 20260502101515 | 2 | 232 | 14.5 | 24.1 | 0.00 | 0.46 | 0.00 | 78 | 1011.2 |
| 20260502101003 | 2 | 228 | 11.3 | 24.1 | 0.00 | 0.46 | 0.00 | 79 | 1011.2 |
| 20260502100504 | 2 | 236 | 11.3 | 27.4 | 0.00 | 0.46 | 0.00 | 79 | 1011.2 |
| 20260502091520 | 2 | 222 | 14.5 | 24.1 | 0.00 | 0.51 | 0.00 | 80 | 1010.6 |
| 20260502091006 | 2 | 196 | 12.9 | 24.1 | 0.00 | 0.51 | 0.00 | 81 | 1010.5 |
| 20260502090510 | 2 | 223 | 9.7 | 22.5 | 0.00 | 0.51 | 0.00 | 81 | 1010.5 |
| 20260502071524 | 2 | 241 | 9.7 | 19.3 | 0.00 | 0.53 | 0.00 | 79 | 1010.0 |
| 20260502071010 | 2 | 240 | 9.7 | 19.3 | 0.00 | 0.53 | 0.00 | 79 | 1010.0 |
| 20260502070508 | 2 | 232 | 11.3 | 19.3 | 0.00 | 0.53 | 0.00 | 80 | 1010.0 |
| 20260502070024 | 3 | 238 | 8.0 | 16.1 | 0.00 | 0.56 | 0.00 | 80 | 1010.0 |
| 20260502065504 | 3 | 229 | 8.0 | 16.1 | 0.00 | 0.56 | 0.00 | 80 | 1010.0 |
| 20260502065003 | 3 | 227 | 8.0 | 14.5 | 0.00 | 0.56 | 0.00 | 79 | 1009.9 |
| 20260502064531 | 3 | 252 | 8.0 | 17.7 | 0.00 | 0.56 | 0.00 | 79 | 1009.9 |
| 20260502064004 | 3 | 220 | 8.0 | 17.7 | 0.00 | 0.56 | 0.00 | 79 | 1009.9 |
| 20260502063504 | 3 | 252 | 9.7 | 16.1 | 0.00 | 0.56 | 0.00 | 79 | 1009.8 |
| 20260502063023 | 3 | 229 | 8.0 | 16.1 | 0.00 | 0.56 | 0.00 | 78 | 1009.7 |
| 20260502062509 | 3 | 246 | 8.0 | 16.1 | 0.00 | 0.56 | 0.00 | 78 | 1009.7 |
| 20260502062007 | 3 | 240 | 6.4 | 16.1 | 0.00 | 0.58 | 0.00 | 78 | 1009.7 |
| 20260502061522 | 4 | 248 | 8.0 | 16.1 | 0.00 | 0.58 | 0.00 | 77 | 1009.6 |
| 20260502061007 | 4 | 229 | 6.4 | 17.7 | 0.00 | 0.58 | 0.00 | 77 | 1009.6 |
| 20260502060509 | 4 | 214 | 6.4 | 19.3 | 0.00 | 0.61 | 0.00 | 77 | 1009.6 |
| 20260502060028 | 4 | 242 | 9.7 | 27.4 | 0.00 | 0.64 | 0.00 | 77 | 1009.6 |
| 20260502055508 | 4 | 236 | 11.3 | 24.1 | 0.00 | 0.64 | 0.00 | 77 | 1009.6 |
| 20260502055007 | 4 | 239 | 11.3 | 24.1 | 0.00 | 0.64 | 0.00 | 77 | 1009.6 |
| 20260502054510 | 4 | 227 | 12.9 | 22.5 | 0.00 | 0.66 | 0.00 | 77 | 1009.6 |
| 20260502054004 | 4 | 256 | 11.3 | 22.5 | 0.00 | 0.69 | 0.00 | 77 | 1009.6 |
| 20260502053502 | 4 | 228 | 8.0 | 25.7 | 0.00 | 0.74 | 0.00 | 77 | 1009.6 |
| 20260502053014 | 4 | 219 | 11.3 | 24.1 | 0.00 | 0.74 | 0.00 | 77 | 1009.6 |
| 20260502052508 | 4 | 248 | 11.3 | 22.5 | 0.00 | 0.79 | 0.00 | 77 | 1009.7 |
| 20260502052007 | 4 | 238 | 9.7 | 22.5 | 0.00 | 0.84 | 0.00 | 78 | 1009.6 |
| 20260502051527 | 4 | 230 | 12.9 | 22.5 | 0.00 | 0.84 | 0.00 | 78 | 1009.6 |
| 20260502051006 | 4 | 254 | 11.3 | 22.5 | 0.00 | 0.89 | 0.00 | 79 | 1009.5 |
| 20260502050507 | 4 | 234 | 11.3 | 22.5 | 0.00 | 0.91 | 0.00 | 79 | 1009.5 |
| 20260502050027 | 4 | 229 | 11.3 | 20.9 | 0.00 | 0.94 | 0.00 | 79 | 1009.5 |
| 20260502045507 | 4 | 240 | 12.9 | 20.9 | 0.00 | 0.94 | 0.00 | 79 | 1009.5 |
| 20260502045010 | 4 | 245 | 11.3 | 19.3 | 0.00 | 0.99 | 0.00 | 80 | 1009.4 |
| 20260502044534 | 4 | 236 | 9.7 | 22.5 | 0.00 | 1.02 | 0.00 | 80 | 1009.5 |
| 20260502044011 | 4 | 229 | 11.3 | 22.5 | 0.00 | 1.07 | 0.00 | 80 | 1009.4 |
| 20260502043510 | 4 | 242 | 8.0 | 19.3 | 0.00 | 1.12 | 0.00 | 81 | 1009.5 |
| 20260502043012 | 4 | 250 | 8.0 | 20.9 | 0.00 | 1.14 | 0.00 | 81 | 1009.5 |
| 20260502042503 | 5 | 245 | 9.7 | 20.9 | 0.00 | 1.19 | 0.00 | 81 | 1009.4 |
| 20260502042006 | 5 | 223 | 8.0 | 16.1 | 0.00 | 1.22 | 0.00 | 81 | 1009.4 |
| 20260502041515 | 5 | 221 | 4.8 | 16.1 | 0.00 | 1.22 | 0.00 | 81 | 1009.4 |
| 20260502041005 | 5 | 252 | 8.0 | 16.1 | 0.00 | 1.27 | 0.00 | 82 | 1009.5 |
| 20260502040507 | 5 | 268 | 9.7 | 16.1 | 0.00 | 1.30 | 0.00 | 82 | 1009.4 |
| 20260502040035 | 5 | 246 | 8.0 | 12.9 | 0.00 | 1.30 | 0.00 | 82 | 1009.4 |
| 20260502035507 | 5 | 227 | 6.4 | 11.3 | 0.00 | 1.32 | 1.30 | 83 | 1009.2 |
| 20260502035010 | 5 | 230 | 4.8 | 16.1 | 0.00 | 1.35 | 1.30 | 83 | 1009.2 |
| 20260502034528 | 5 | 226 | 6.4 | 16.1 | 0.00 | 1.35 | 1.30 | 84 | 1009.1 |
| 20260502034009 | 5 | 232 | 3.2 | 9.7 | 0.00 | 1.35 | 1.30 | 84 | 1009.1 |
| 20260502033510 | 5 | 232 | 3.2 | 6.4 | 0.00 | 1.35 | 1.30 | 84 | 1009.0 |
| 20260502033027 | 5 | 221 | 3.2 | 4.8 | 0.00 | 1.37 | 1.30 | 84 | 1009.0 |
| 20260502032510 | 5 | 204 | 3.2 | 9.7 | 0.00 | 1.37 | 1.30 | 84 | 1008.9 |
| 20260502032013 | 5 | 232 | 4.8 | 9.7 | 0.00 | 1.37 | 1.30 | 84 | 1008.9 |
| 20260502031517 | 5 | 200 | 3.2 | 6.4 | 0.00 | 1.40 | 1.30 | 85 | 1009.0 |
| 20260502031006 | 5 | 211 | 3.2 | 6.4 | 0.00 | 1.40 | 1.30 | 85 | 1009.0 |
| 20260502030506 | 5 | 217 | 3.2 | 6.4 | 0.00 | 1.40 | 1.30 | 84 | 1008.9 |
| 20260502030021 | 5 | 219 | 4.8 | 6.4 | 0.00 | 1.42 | 1.30 | 85 | 1008.8 |
| 20260502025506 | 5 | 198 | 3.2 | 9.7 | 0.00 | 1.45 | 1.30 | 85 | 1008.9 |
| 20260502025008 | 5 | 230 | 3.2 | 9.7 | 0.00 | 1.47 | 1.30 | 85 | 1008.9 |
| 20260502024526 | 5 | 215 | 4.8 | 9.7 | 0.00 | 1.50 | 1.30 | 85 | 1009.0 |
| 20260502024009 | 5 | 223 | 3.2 | 9.7 | 0.00 | 1.52 | 1.30 | 85 | 1009.0 |
| 20260502023509 | 5 | 239 | 4.8 | 9.7 | 0.00 | 1.55 | 1.30 | 85 | 1009.0 |
| 20260502023027 | 5 | 212 | 3.2 | 11.3 | 0.00 | 1.57 | 1.30 | 85 | 1009.0 |
| 20260502022512 | 5 | 239 | 4.8 | 11.3 | 0.00 | 1.57 | 1.30 | 84 | 1009.0 |
| 20260502022012 | 5 | 220 | 4.8 | 11.3 | 0.00 | 1.60 | 1.30 | 83 | 1009.0 |
| 20260502021510 | 5 | 226 | 3.2 | 11.3 | 0.00 | 1.63 | 1.30 | 83 | 1009.0 |
| 20260502021004 | 5 | 239 | 4.8 | 11.3 | 0.00 | 1.65 | 1.30 | 83 | 1009.1 |
| 20260502020506 | 5 | 242 | 4.8 | 8.0 | 0.00 | 1.68 | 1.30 | 84 | 1009.0 |
| 20260502020018 | 5 | 236 | 1.6 | 4.8 | 0.00 | 1.68 | 1.30 | 84 | 1009.1 |
| 20260502015511 | 5 | 200 | 1.6 | 6.4 | 0.00 | 1.70 | 1.30 | 84 | 1009.1 |
| 20260502015007 | 5 | 230 | 1.6 | 6.4 | 0.00 | 1.73 | 1.30 | 85 | 1009.0 |
| 20260502014512 | 5 | 225 | 1.6 | 6.4 | 0.00 | 1.75 | 1.30 | 85 | 1009.0 |
| 20260502014002 | 5 | 259 | 1.6 | 4.8 | 0.00 | 1.78 | 1.30 | 86 | 1009.1 |
| 20260502013503 | 5 | 240 | 1.6 | 9.7 | 0.00 | 1.78 | 1.30 | 86 | 1009.1 |
| 20260502013007 | 5 | 240 | 1.6 | 9.7 | 0.00 | 1.78 | 1.30 | 87 | 1009.1 |
| 20260502012502 | 5 | 235 | 4.8 | 9.7 | 0.00 | 1.78 | 1.30 | 87 | 1009.1 |
| 20260502012002 | 5 | 242 | 4.8 | 9.7 | 0.00 | 1.78 | 1.30 | 88 | 1009.2 |
| 20260502011508 | 5 | 246 | 4.8 | 11.3 | 0.00 | 1.78 | 1.30 | 88 | 1009.2 |
| 20260502011004 | 5 | 218 | 6.4 | 12.9 | 0.00 | 1.78 | 1.30 | 88 | 1009.3 |
| 20260502010503 | 5 | 239 | 6.4 | 12.9 | 0.00 | 1.78 | 1.30 | 88 | 1009.2 |
| 20260502010013 | 5 | 204 | 4.8 | 11.3 | 0.00 | 1.78 | 1.30 | 88 | 1009.1 |
| 20260502005507 | 5 | 239 | 6.4 | 11.3 | 0.00 | 1.78 | 1.30 | 89 | 1009.2 |
| 20260502005008 | 5 | 218 | 3.2 | 14.5 | 0.00 | 1.78 | 1.30 | 88 | 1009.2 |
| 20260502004523 | 5 | 248 | 4.8 | 14.5 | 0.00 | 1.78 | 1.30 | 88 | 1009.2 |
| 20260502004008 | 5 | 177 | 4.8 | 9.7 | 0.00 | 1.78 | 1.30 | 88 | 1009.1 |
| 20260502003503 | 5 | 225 | 4.8 | 9.7 | 0.00 | 1.78 | 1.30 | 88 | 1009.2 |
| 20260502003002 | 4 | 233 | 4.8 | 12.9 | 0.00 | 1.78 | 1.30 | 88 | 1009.2 |
| 20260502002502 | 4 | 194 | 4.8 | 12.9 | 0.00 | 1.78 | 1.30 | 88 | 1009.2 |
| 20260502002003 | 4 | 215 | 3.2 | 9.7 | 0.00 | 1.78 | 1.30 | 88 | 1009.0 |
| 20260502001506 | 4 | 203 | 4.8 | 11.3 | 0.00 | 1.78 | 1.30 | 87 | 1008.9 |
| 20260502001003 | 4 | 215 | 6.4 | 14.5 | 0.00 | 1.78 | 1.30 | 87 | 1008.9 |
| 20260502000503 | 5 | 232 | 3.2 | 14.5 | 0.00 | 1.78 | 1.30 | 87 | 1008.8 |
| 20260502000011 | 5 | 201 | 4.8 | 9.7 | 0.00 | 1.78 | 1.30 | 86 | 1008.9 |
| 20260501235503 | 5 | 196 | 6.4 | 11.3 | 0.00 | 1.78 | 1.30 | 85 | 1008.8 |
| 20260501235003 | 5 | 219 | 6.4 | 11.3 | 0.00 | 1.78 | 1.30 | 85 | 1008.8 |
| 20260501234518 | 5 | 181 | 4.8 | 9.7 | 0.00 | 1.80 | 1.30 | 85 | 1008.9 |
| 20260501234007 | 5 | 223 | 4.8 | 9.7 | 0.00 | 1.80 | 1.30 | 85 | 1008.9 |
| 20260501233505 | 5 | 210 | 6.4 | 9.7 | 0.00 | 1.80 | 1.30 | 85 | 1008.8 |
| 20260501233023 | 5 | 207 | 4.8 | 11.3 | 0.00 | 1.83 | 1.30 | 84 | 1008.7 |
| 20260501232514 | 5 | 207 | 4.8 | 11.3 | 0.00 | 1.83 | 1.30 | 84 | 1008.7 |
| 20260501232002 | 5 | 199 | 3.2 | 11.3 | 0.00 | 1.83 | 1.30 | 84 | 1008.7 |
| 20260501231506 | 5 | 188 | 3.2 | 6.4 | 0.00 | 1.83 | 1.30 | 84 | 1008.6 |
| 20260501231003 | 5 | 202 | 3.2 | 6.4 | 0.00 | 1.83 | 1.30 | 84 | 1008.6 |
| 20260501230504 | 5 | 215 | 3.2 | 11.3 | 0.00 | 1.83 | 1.30 | 84 | 1008.5 |
| 20260501230010 | 5 | 223 | 4.8 | 11.3 | 0.00 | 1.83 | 1.30 | 83 | 1008.4 |
| 20260501225504 | 5 | 242 | 4.8 | 12.9 | 0.00 | 1.83 | 1.30 | 84 | 1008.3 |
| 20260501225006 | 5 | 243 | 6.4 | 12.9 | 0.00 | 1.83 | 1.30 | 83 | 1008.2 |
| 20260501224517 | 5 | 237 | 4.8 | 11.3 | 0.00 | 1.83 | 1.30 | 83 | 1008.2 |
| 20260501224004 | 5 | 230 | 4.8 | 16.1 | 0.00 | 1.83 | 1.30 | 83 | 1008.2 |
| 20260501223507 | 5 | 227 | 6.4 | 16.1 | 0.00 | 1.83 | 1.30 | 84 | 1008.3 |
| 20260501223021 | 5 | 239 | 4.8 | 11.3 | 0.00 | 1.83 | 1.30 | 85 | 1008.2 |
| 20260501222506 | 5 | 236 | 6.4 | 11.3 | 0.00 | 1.83 | 1.30 | 85 | 1008.2 |
| 20260501222011 | 5 | 228 | 4.8 | 12.9 | 0.00 | 1.83 | 1.30 | 85 | 1008.2 |
| 20260501221523 | 5 | 204 | 6.4 | 12.9 | 0.00 | 1.83 | 1.30 | 84 | 1008.0 |
| 20260501221003 | 5 | 254 | 6.4 | 11.3 | 0.00 | 1.83 | 1.30 | 85 | 1008.1 |
| 20260501220503 | 5 | 248 | 3.2 | 11.3 | 0.00 | 1.83 | 1.30 | 85 | 1008.0 |
| 20260501220007 | 5 | 240 | 4.8 | 11.3 | 0.00 | 1.83 | 1.30 | 85 | 1008.1 |
| 20260501215503 | 5 | 200 | 3.2 | 14.5 | 0.00 | 1.83 | 1.30 | 85 | 1008.2 |
| 20260501215004 | 5 | 221 | 8.0 | 16.1 | 0.00 | 1.83 | 1.30 | 84 | 1008.1 |
| 20260501214512 | 5 | 205 | 8.0 | 16.1 | 0.00 | 1.85 | 1.30 | 84 | 1008.1 |
| 20260501214004 | 5 | 178 | 1.6 | 16.1 | 0.00 | 1.85 | 1.30 | 85 | 1008.1 |
| 20260501213509 | 5 | 224 | 9.7 | 16.1 | 0.00 | 1.88 | 1.30 | 85 | 1008.1 |
| 20260501213018 | 5 | 236 | 6.4 | 16.1 | 0.00 | 1.88 | 1.30 | 86 | 1008.0 |
| 20260501212506 | 5 | 221 | 6.4 | 16.1 | 0.00 | 1.88 | 1.30 | 85 | 1008.0 |
| 20260501212005 | 5 | 244 | 8.0 | 14.5 | 0.00 | 1.88 | 1.30 | 85 | 1008.0 |
| 20260501211522 | 5 | 285 | 4.8 | 11.3 | 0.00 | 1.88 | 1.30 | 86 | 1008.0 |
| 20260501211008 | 5 | 249 | 4.8 | 16.1 | 0.00 | 1.88 | 1.30 | 87 | 1008.0 |
| 20260501210510 | 5 | 279 | 8.0 | 20.9 | 0.00 | 1.88 | 1.30 | 88 | 1008.0 |
| 20260501210032 | 5 | 276 | 9.7 | 22.5 | 0.00 | 1.88 | 1.30 | 87 | 1008.1 |
| 20260501205503 | 5 | 261 | 8.0 | 22.5 | 0.00 | 1.88 | 1.30 | 89 | 1008.0 |
| 20260501205003 | 5 | 246 | 9.7 | 22.5 | 0.00 | 1.88 | 1.30 | 89 | 1008.1 |
| 20260501204510 | 4 | 261 | 9.7 | 22.5 | 0.00 | 1.88 | 1.30 | 90 | 1008.0 |
| 20260501204007 | 4 | 252 | 9.7 | 19.3 | 0.00 | 1.88 | 1.30 | 90 | 1008.0 |
| 20260501203504 | 4 | 263 | 9.7 | 19.3 | 0.00 | 1.88 | 1.30 | 91 | 1008.0 |
| 20260501203017 | 4 | 242 | 8.0 | 19.3 | 0.00 | 1.88 | 1.30 | 91 | 1007.9 |
| 20260501202506 | 4 | 279 | 9.7 | 19.3 | 0.00 | 1.88 | 1.30 | 91 | 1007.9 |
| 20260501202009 | 4 | 277 | 8.0 | 16.1 | 0.00 | 1.88 | 1.30 | 92 | 1007.8 |
| 20260501201520 | 4 | 203 | 6.4 | 16.1 | 0.00 | 1.88 | 1.30 | 92 | 1007.7 |
| 20260501201006 | 4 | 267 | 8.0 | 25.7 | 0.00 | 1.88 | 1.30 | 92 | 1007.7 |
| 20260501200510 | 4 | 280 | 9.7 | 25.7 | 0.00 | 1.88 | 1.30 | 92 | 1007.7 |
| 20260501200023 | 4 | 234 | 16.1 | 25.7 | 0.00 | 1.88 | 1.30 | 92 | 1007.7 |
| 20260501195509 | 4 | 268 | 9.7 | 22.5 | 0.00 | 1.88 | 1.30 | 93 | 1007.6 |
| 20260501195012 | 3 | 251 | 11.3 | 22.5 | 0.00 | 1.88 | 1.30 | 92 | 1007.6 |
| 20260501194509 | 3 | 251 | 9.7 | 19.3 | 0.00 | 1.88 | 1.30 | 92 | 1007.5 |
| 20260501194003 | 3 | 217 | 11.3 | 19.3 | 0.00 | 1.88 | 1.30 | 92 | 1007.5 |
| 20260501193502 | 3 | 239 | 9.7 | 19.3 | 0.00 | 1.88 | 1.30 | 92 | 1007.3 |
| 20260501193011 | 4 | 245 | 8.0 | 16.1 | 0.00 | 1.88 | 1.30 | 92 | 1007.3 |
| 20260501192503 | 4 | 277 | 8.0 | 17.7 | 0.00 | 1.88 | 1.30 | 92 | 1007.3 |
| 20260501192006 | 4 | 274 | 9.7 | 19.3 | 0.00 | 1.88 | 1.30 | 92 | 1007.3 |
| 20260501191518 | 4 | 244 | 8.0 | 19.3 | 0.00 | 1.88 | 1.30 | 91 | 1007.3 |
| 20260501191006 | 4 | 267 | 9.7 | 20.9 | 0.00 | 1.88 | 1.30 | 91 | 1007.2 |
| 20260501190513 | 4 | 265 | 6.4 | 20.9 | 0.00 | 1.88 | 1.30 | 91 | 1007.1 |
| 20260501190025 | 5 | 278 | 4.8 | 16.1 | 0.00 | 1.88 | 1.30 | 92 | 1007.0 |
| 20260501185510 | 4 | 269 | 8.0 | 16.1 | 0.00 | 1.88 | 1.30 | 91 | 1006.8 |
| 20260501185010 | 5 | 299 | 4.8 | 14.5 | 0.00 | 1.88 | 1.30 | 92 | 1006.8 |